BOX110 EDDP-VIDP

Flight info

Callsign BOX110
Flight time N/A
Altitude 31000
Route DRN2E DRN Z21 OMELO DCT EVIKU DCT ROMIS DCT BADOR DCT ROMAG DCT UDROS/N0485F330 UM859 KARDE UN644 ROLIN N644 ODILI DCT BARAD M747 SUBUT T923 ERLEV L850 BAKUV N701 LARGI B701 TUGTA A909 NINOP B801 RANAH L750 RIKAD/N0489F350 L750 MERUN G452 LKA LKA7G
Aircraft B77L/H-SDE1E2E3FGHIJ2J3J4J5M1RWXY/LB1D1

Departure

Time 2026-05-07 11:38
Airport Leipzig/Halle Airport (EDDP)

Arrival

Time N/A
Airport Indira Gandhi International Airport (VIDP)
Time Latitude Longitude Altitude Speed Heading
2026-05-07 10:55 51.40834 12.24342 469 ft 0 kts 85°
2026-05-07 11:25 51.40834 12.24339 469 ft 2 kts 85°
2026-05-07 11:25 51.40831 12.24298 467 ft 4 kts 85°
2026-05-07 11:25 51.40829 12.24263 463 ft 4 kts 63°
2026-05-07 11:26 51.40812 12.24243 452 ft 4 kts 360°
2026-05-07 11:26 51.40789 12.24245 447 ft 1 kts 355°
2026-05-07 11:26 51.40788 12.24245 446 ft 0 kts 355°
2026-05-07 11:30 51.40789 12.24245 447 ft 1 kts 355°
2026-05-07 11:30 51.40814 12.24242 452 ft 6 kts 355°
2026-05-07 11:31 51.40858 12.24237 447 ft 6 kts 355°
2026-05-07 11:31 51.40902 12.24231 468 ft 6 kts 355°
2026-05-07 11:31 51.40948 12.24226 469 ft 7 kts 355°
2026-05-07 11:31 51.40994 12.24220 468 ft 7 kts 355°
2026-05-07 11:32 51.41070 12.24071 470 ft 15 kts 265°
2026-05-07 11:32 51.41061 12.23890 469 ft 17 kts 266°
2026-05-07 11:32 51.41052 12.23706 475 ft 17 kts 265°
2026-05-07 11:33 51.41044 12.23522 469 ft 17 kts 267°
2026-05-07 11:33 51.41036 12.23337 470 ft 17 kts 265°
2026-05-07 11:33 51.41026 12.23153 472 ft 17 kts 265°
2026-05-07 11:33 51.41018 12.22964 468 ft 18 kts 266°
2026-05-07 11:34 51.41009 12.22767 467 ft 18 kts 265°
2026-05-07 11:34 51.41000 12.22569 464 ft 18 kts 265°
2026-05-07 11:34 51.40993 12.22381 462 ft 13 kts 277°
2026-05-07 11:34 51.41058 12.22289 461 ft 13 kts 312°
2026-05-07 11:35 51.41068 12.22146 461 ft 14 kts 268°
2026-05-07 11:35 51.41058 12.21927 461 ft 21 kts 265°
2026-05-07 11:35 51.41045 12.21692 460 ft 21 kts 264°
2026-05-07 11:35 51.41034 12.21456 457 ft 21 kts 267°
2026-05-07 11:36 51.41022 12.21220 454 ft 21 kts 264°
2026-05-07 11:36 51.41013 12.20976 445 ft 23 kts 266°
2026-05-07 11:36 51.41002 12.20727 432 ft 22 kts 266°
2026-05-07 11:36 51.41000 12.20549 430 ft 10 kts 284°
2026-05-07 11:37 51.41050 12.20485 426 ft 9 kts 359°
2026-05-07 11:37 51.41134 12.20521 440 ft 18 kts 20°
2026-05-07 11:37 51.41173 12.20658 431 ft 13 kts 87°
2026-05-07 11:37 51.41181 12.20901 447 ft 42 kts 85°
2026-05-07 11:38 51.41222 12.21736 458 ft 107 kts 85°
2026-05-07 11:38 51.41294 12.23218 470 ft 161 kts 85°
2026-05-07 11:38 51.41388 12.25240 646 ft 185 kts 84°
2026-05-07 11:38 51.41486 12.27241 1256 ft 179 kts 83°
2026-05-07 11:39 51.41574 12.29190 1801 ft 178 kts 84°
2026-05-07 11:39 51.41657 12.31209 2193 ft 188 kts 84°
2026-05-07 11:39 51.41753 12.33406 2370 ft 207 kts 84°
2026-05-07 11:39 51.41858 12.35816 2526 ft 227 kts 85°
2026-05-07 11:40 51.41976 12.38431 2862 ft 243 kts 84°
2026-05-07 11:40 51.42091 12.41173 3326 ft 252 kts 90°
2026-05-07 11:40 51.41662 12.43910 3735 ft 258 kts 117°
2026-05-07 11:40 51.40767 12.46454 4250 ft 265 kts 118°
2026-05-07 11:41 51.39888 12.49065 4961 ft 267 kts 117°
2026-05-07 11:41 51.39022 12.51702 5700 ft 268 kts 117°
2026-05-07 11:41 51.38165 12.54358 6410 ft 269 kts 117°
2026-05-07 11:41 51.37309 12.57032 7016 ft 272 kts 118°
2026-05-07 11:42 51.36442 12.59756 7565 ft 279 kts 119°
2026-05-07 11:42 51.35558 12.62554 8139 ft 283 kts 119°
2026-05-07 11:42 51.34671 12.65374 8790 ft 285 kts 119°
2026-05-07 11:42 51.33778 12.68219 9377 ft 288 kts 119°
2026-05-07 11:43 51.32887 12.71057 9947 ft 291 kts 119°
2026-05-07 11:43 51.31969 12.73979 10353 ft 300 kts 119°
2026-05-07 11:43 51.31000 12.77058 10488 ft 319 kts 119°
2026-05-07 11:43 51.29972 12.80321 10647 ft 338 kts 119°
2026-05-07 11:44 51.28885 12.83772 10794 ft 357 kts 118°
2026-05-07 11:44 51.27748 12.87386 11126 ft 371 kts 118°
2026-05-07 11:44 51.26577 12.91107 11665 ft 379 kts 118°
2026-05-07 11:44 51.25770 12.93666 12108 ft 383 kts 118°
2026-05-07 11:45 51.24567 12.97473 12815 ft 385 kts 118°
2026-05-07 11:45 51.23357 13.01299 13546 ft 387 kts 118°
2026-05-07 11:45 51.22151 13.05108 14098 ft 391 kts 118°
2026-05-07 11:45 51.20900 13.09051 14670 ft 395 kts 118°
2026-05-07 11:46 51.19651 13.12980 15256 ft 399 kts 118°
2026-05-07 11:46 51.18410 13.16877 15824 ft 401 kts 118°
2026-05-07 11:46 51.17132 13.20853 16418 ft 404 kts 120°
2026-05-07 11:46 51.15683 13.24704 16963 ft 406 kts 124°
2026-05-07 11:47 51.14148 13.28521 17515 ft 410 kts 124°
2026-05-07 11:47 51.12606 13.32362 18077 ft 413 kts 124°
2026-05-07 11:47 51.11054 13.36239 18603 ft 416 kts 124°
2026-05-07 11:47 51.09495 13.40144 19101 ft 419 kts 124°
2026-05-07 11:48 51.07932 13.44063 19661 ft 421 kts 124°
2026-05-07 11:48 51.06357 13.48009 20206 ft 423 kts 124°
2026-05-07 11:48 51.04777 13.51966 20715 ft 425 kts 124°
2026-05-07 11:48 51.03181 13.55955 21215 ft 428 kts 124°
2026-05-07 11:49 51.01577 13.59953 21705 ft 430 kts 124°
2026-05-07 11:49 50.99964 13.63978 22172 ft 433 kts 124°
2026-05-07 11:49 50.98361 13.67982 22644 ft 436 kts 124°